Location: Austin
(30.3000°N, 97.7500°W)
Time: 19:14:31
(UTC-06:00)

IRS-1C - Pass Details

Date: 31 October 2024
Orbit: 813 x 815 km, 99.0° (Epoch: 05 November)

Event Time Altitude Azimuth Distance (km) Brightness Sun altitude
Rises 06:56:11 0° 13° (NNE) 3,340 7.3 -11.1°
Reaches altitude 10° 06:58:31 10° 13° (NNE) 2,405 6.6 -10.6°
Maximum altitude 07:03:51 90° 357° (N) 818 4.2 -9.5°
Drops below altitude 10° 07:09:09 10° 194° (SSW) 2,393 6.5 -8.3°
Sets 07:11:29 0° 195° (SSW) 3,321 7.3 -7.8°
